TimeMST,TemperatureF,Dew PointF,Humidity,Sea Level PressureIn,VisibilityMPH,Wind Direction,Wind SpeedMPH,Gust SpeedMPH,PrecipitationIn,Events,Conditions,WindDirDegrees,DateUTC
12:53 AM,46.9,36.0,66,30.19,10.0,SW,12.7,-,N/A,,Clear,230,2012-11-05 07:53:00
1:53 AM,48.0,35.1,61,30.17,10.0,SW,16.1,-,N/A,,Clear,230,2012-11-05 08:53:00
2:53 AM,48.9,35.1,59,30.14,10.0,WSW,17.3,-,N/A,,Clear,240,2012-11-05 09:53:00
3:53 AM,48.0,35.1,61,30.12,10.0,WSW,17.3,-,N/A,,Clear,240,2012-11-05 10:53:00
4:53 AM,48.9,35.1,59,30.11,10.0,SW,16.1,-,N/A,,Clear,230,2012-11-05 11:53:00
5:53 AM,46.0,34.0,63,30.10,10.0,SW,15.0,-,N/A,,Clear,220,2012-11-05 12:53:00
6:53 AM,50.0,34.0,54,30.09,10.0,WSW,20.7,28.8,N/A,,Scattered Clouds,240,2012-11-05 13:53:00
7:53 AM,50.0,34.0,54,30.08,10.0,WSW,19.6,27.6,N/A,,Scattered Clouds,240,2012-11-05 14:53:00
8:53 AM,50.0,34.0,54,30.08,10.0,SW,17.3,-,N/A,,Mostly Cloudy,230,2012-11-05 15:53:00
9:53 AM,52.0,34.0,50,30.05,10.0,WSW,25.3,-,N/A,,Mostly Cloudy,240,2012-11-05 16:53:00
10:53 AM,54.0,34.0,47,30.06,10.0,WSW,20.7,-,N/A,,Mostly Cloudy,240,2012-11-05 17:53:00
11:53 AM,57.0,34.0,42,30.04,10.0,SSW,15.0,-,N/A,,Scattered Clouds,210,2012-11-05 18:53:00
12:53 PM,61.0,35.1,38,30.00,10.0,WSW,11.5,21.9,N/A,,Scattered Clouds,240,2012-11-05 19:53:00
1:00 PM,68.0,35.6,30,30.01,10.0,West,27.6,40.3,N/A,,Squalls,270,2012-11-05 20:00:00
1:08 PM,64.4,35.6,34,30.02,10.0,WSW,18.4,38.0,N/A,,Scattered Clouds,250,2012-11-05 20:08:00
1:53 PM,69.1,37.0,31,29.95,10.0,West,29.9,41.4,N/A,,Scattered Clouds,270,2012-11-05 20:53:00
2:53 PM,66.9,36.0,32,29.99,10.0,West,18.4,29.9,N/A,,Scattered Clouds,270,2012-11-05 21:53:00
3:53 PM,62.1,35.1,37,30.02,10.0,SSW,12.7,-,N/A,,Scattered Clouds,200,2012-11-05 22:53:00
4:53 PM,60.1,35.1,39,30.03,10.0,WNW,9.2,-,N/A,,Scattered Clouds,300,2012-11-05 23:53:00
5:53 PM,63.0,36.0,37,30.01,10.0,NW,20.7,27.6,N/A,,Scattered Clouds,310,2012-11-06 00:53:00
6:53 PM,61.0,35.1,38,30.03,10.0,WNW,11.5,-,N/A,,Clear,300,2012-11-06 01:53:00
7:53 PM,57.9,34.0,41,30.09,10.0,Calm,Calm,-,N/A,,Clear,0,2012-11-06 02:53:00
8:53 PM,46.9,36.0,66,30.15,10.0,NE,11.5,-,N/A,,Clear,40,2012-11-06 03:53:00
9:53 PM,45.0,35.1,68,30.19,10.0,NE,9.2,-,N/A,,Clear,40,2012-11-06 04:53:00
10:53 PM,43.0,35.1,74,30.19,10.0,ENE,9.2,-,N/A,,Clear,60,2012-11-06 05:53:00
11:53 PM,39.9,34.0,79,30.21,10.0,NNE,5.8,-,N/A,,Clear,30,2012-11-06 06:53:00